CAPE
0 0 0 0 0 0 0 0 0 0 0 0 0 0 0 0 0 0 0 0 0 0 0 2 1 0 0 0 0 0 0 0 1 4 5 5 8 9
0 0 0 0 0 0 0 0 0 0 0 0 0 0 0 0 0 0 0 0 0 3 0 0 0 0 0 0 0 0 0 0 0 2 3 4 6 8
0 0 0 0 0 0 0 0 0 0 0 0 0 0 0 0 0 0 0 0 0 0 0 1 1 0 0 0 0 0 0 0 0 0 2 3 6 5
0 0 0 0 0 0 0 0 0 0 0 0 0 0 0 0 0 0 0 0 0 2 1 0 0 0 0 0 0 0 0 0 0 0 0 1 3 3
0 0 0 0 0 0 0 0 0 0 0 0 0 0 0 0 0 0 0 0 0 0 0 0 0 0 0 0 0 0 0 0 0 2 1 2 2 4
0 0 0 0 0 0 0 0 0 0 0 0 0 0 0 0 0 0 0 0 0 0 0 0 0 0 0 0 0 0 0 0 0 0 2 3 4 6
0 0 0 0 0 0 0 0 0 0 0 0 0 0 0 0 0 0 0 0 0 0 0 0 0 0 0 0 0 0 0 0 0 3 1 2 2 2
0 0 0 0 0 0 0 0 0 0 0 0 0 0 0 0 0 0 0 0 0 0 0 0 0 0 0 0 0 0 0 0 0 0 0 0 0 0
0 0 0 0 0 0 0 0 0 0 0 0 0 0 0 0 0 0 0 0 0 0 0 0 0 0 0 0 0 0 0 0 0 0 0 0 0 0
0 0 0 0 0 0 0 0 0 0 0 0 0 0 0 0 0 0 0 0 0 0 0 0 0 0 0 0 0 0 0 0 0 0 0 0 0 0
0 0 0 0 9 6 0 0 1 0 0 0 0 0 0 0 0 0 0 0 0 0 0 0 0 0 0 0 0 0 1 0 0 0 0 0 0 0
1 1 6 1 18 12 1 0 0 0 0 0 0 0 0 0 0 0 0 0 0 0 0 0 0 0 0 0 0 0 0 0 0 0 0 0 0 0
0 0 0 23 25 10 2 0 0 0 3 0 0 0 0 0 0 0 0 0 0 0 0 0 0 0 0 0 0 0 0 0 0 0 0 0 0 0
1 0 1 33 13 4 0 1 2 2 0 0 0 0 0 0 0 0 0 0 0 0 0 0 0 0 0 0 0 0 0 0 0 0 0 0 0 0
1 3 24 29 21 13 1 13 17 0 0 0 0 0 0 0 0 0 0 0 0 0 0 0 0 0 0 0 0 0 0 0 0 0 0 0 0 0
6 7 12 18 11 0 1 6 0 0 0 0 0 0 0 0 0 0 0 0 0 0 0 0 0 0 0 0 0 0 0 0 0 0 0 0 0 0
2 0 1 1 3 2 2 3 0 0 0 0 0 0 0 0 0 0 0 0 0 0 0 0 0 0 0 0 0 0 0 0 0 0 0 0 0 0
2 2 3 3 3 3 1 0 0 0 0 0 0 0 0 0 0 0 0 0 0 0 0 0 0 0 0 0 0 0 0 0 0 0 0 0 0 0
2 2 1 2 1 0 0 0 0 0 0 0 0 0 0 0 0 0 0 0 0 0 0 0 0 0 0 0 0 0 0 0 0 0 0 0 0 0
0 0 0 0 0 0 0 0 0 0 0 0 0 0 0 0 0 0 0 0 0 0 0 0 0 0 0 0 0 0 0 0 0 0 0 0 0 1
0 0 0 0 0 0 0 0 0 0 0 0 0 0 0 0 0 0 0 1 3 0 0 0 0 1 0 0 0 0 0 0 0 0 0 0 0 0
0 0 0 0 0 0 0 0 0 0 0 0 0 0 0 0 0 0 0 0 0 0 0 0 0 0 0 0 0 0 0 0 0 0 1 2 0 0
0 0 0 0 0 0 0 0 0 0 0 0 0 0 0 0 0 0 0 0 0 0 0 0 0 0 0 0 0 0 0 0 0 0 0 0 1 2
CIN
-0 -0 -0 -0 -0 -0 -0 -0 -0 -0 -0 -0 -0 -0 -0 -0 -0 -0 -0 -0 -0 -0 -0 -0 -0 -0 -0 -0 -0 -0 -0 -0 -0 -0 -0 -0 -0 -0
-0 -0 -0 -0 -0 -0 -0 -0 -0 -0 -0 -0 -0 -0 -0 -0 -0 -0 -0 -0 -0 -0 -0 -0 -0 -0 -0 -0 -0 -0 -0 -0 -0 -0 -0 -0 -0 -0
-0 -0 -0 -0 -0 -0 -0 -0 -0 -0 -0 -0 -0 -0 -0 -0 -0 -0 -0 -0 -0 -0 -0 -0 -0 -0 -0 -0 -0 -0 -0 -0 -0 -0 -0 -0 -0 -0
-0 -0 -0 -0 -0 -0 -0 -0 -0 -0 -0 -0 -0 -0 -0 -0 -0 -0 -0 -0 -0 -0 -0 -0 -0 -0 -0 -0 -0 -0 -0 -0 -0 -0 -0 -0 -0 -0
-0 -0 -0 -0 -0 -0 -0 -0 -0 -0 -0 -0 -0 -0 -0 -0 -0 -0 -0 -0 -0 -0 -0 -0 -0 -0 -0 -0 -0 -0 -0 -0 -0 -0 -0 -0 -0 -0
-0 -0 -0 -0 -0 -0 -0 -0 -0 -0 -0 -0 -0 -0 -0 -0 -0 -0 -0 -0 -0 -0 -0 -0 -0 -0 -0 -0 -0 -0 -0 -0 -0 -0 -0 -0 -0 -0
-0 -0 -0 -0 -0 -0 -0 -0 -0 -0 -0 -0 -0 -0 -0 -0 -0 -0 -0 -0 -0 -0 -0 -0 -0 -0 -0 -0 -0 -0 -0 -0 -0 -0 -0 -0 -0 -0
-0 -0 -0 -0 -0 -0 -0 -0 -0 -0 -0 -0 -0 -0 -0 -0 -0 -0 -0 -0 -0 -0 -0 -0 -0 -0 -0 -0 -0 -0 -0 -0 -0 -0 -0 -0 -0 -0
-0 -0 -0 -0 -0 -0 -0 -0 -0 -0 -0 -0 -0 -0 -0 -0 -0 -0 -0 -0 -0 -0 -0 -0 -0 -0 -0 -0 -0 -0 -0 -0 -0 -0 -0 -0 -0 -0
-0 -0 -0 -0 -0 -0 -0 -0 -0 -0 -0 -0 -0 -0 -0 -0 -0 -0 -0 -0 -0 -0 -0 -0 -0 -0 -0 -0 -0 -0 -0 -0 -0 -0 -0 -0 -0 -0
-0 -0 -0 -0 -0 -0 -0 -0 -0 -0 -0 -0 -0 -0 -0 -0 -0 -0 -0 -0 -0 -0 -0 -0 -0 -0 -0 -0 -0 -0 -0 -0 -0 -0 -0 -0 -0 -0
-0 -0 -0 -0 -0 -0 -0 -0 -0 -0 -0 -0 -0 -0 -0 -0 -0 -0 -0 -0 -0 -0 -0 -0 -0 -0 -0 -0 -0 -0 -0 -0 -0 -0 -0 -0 -0 -0
-0 -0 -0 -0 -0 -0 -0 -0 -0 -0 -0 -0 -0 -0 -0 -0 -0 -0 -0 -0 -0 -0 -0 -0 -0 -0 -0 -0 -0 -0 -0 -0 -0 -0 -0 -0 -0 -0
-0 -0 -0 -0 -0 -0 -0 -0 -0 -0 -0 -0 -0 -0 -0 -0 -0 -0 -0 -0 -0 -0 -0 -0 -0 -0 -0 -0 -0 -0 -0 -0 -0 -0 -0 -0 -0 -0
-0 -0 -0 -0 -0 -0 -0 -0 -0 -0 -0 -0 -0 -0 -0 -0 -0 -0 -0 -0 -0 -0 -0 -0 -0 -0 -0 -0 -0 -0 -0 -0 -0 -0 -0 -0 -0 -0
-0 -0 -0 -0 -0 -0 -0 -0 -0 -0 -0 -0 -0 -0 -0 -0 -0 -0 -0 -0 -0 -0 -0 -0 -0 -0 -0 -0 -0 -0 -0 -0 -0 -0 -0 -0 -0 -0
-0 -0 -0 -0 -0 -0 -0 -0 -0 -0 -0 -0 -0 -0 -0 -0 -0 -0 -0 -0 -0 -0 -0 -0 -0 -0 -0 -0 -0 -0 -0 -0 -0 -0 -0 -0 -0 -0
-0 -0 -0 -0 -0 -0 -0 -0 -0 -0 -0 -0 -0 -0 -0 -0 -0 -0 -0 -0 -0 -0 -0 -0 -0 -0 -0 -0 -0 -0 -0 -0 -0 -0 -0 -0 -0 -0
-0 -0 -0 -0 -0 -0 -0 -0 -0 -0 -0 -0 -0 -0 -0 -0 -0 -0 -0 -0 -0 -0 -0 -0 -0 -0 -0 -0 -0 -0 -0 -0 -0 -0 -0 -0 -0 -0
-0 -0 -0 -0 -0 -0 -0 -0 -0 -0 -0 -0 -0 -0 -0 -0 -0 -0 -0 -0 -0 -0 -0 -0 -0 -0 -0 -0 -0 -0 -0 -0 -0 -0 -0 -0 -0 -0
-0 -0 -0 -0 -0 -0 -0 -0 -0 -0 -0 -0 -0 -0 -0 -0 -0 -0 -0 -0 -0 -0 -1 -1 -0 -0 -0 -0 -0 -0 -0 -0 -0 -0 -0 -0 -0 -0
-0 -0 -0 -0 -0 -0 -0 -0 -0 -0 -0 -0 -0 -0 -0 -0 -0 -0 -0 -0 -0 -0 -0 -0 -0 -0 -0 -0 -0 -0 -0 -0 -0 -0 -0 -0 -0 -0
-0 -0 -0 -0 -0 -0 -0 -0 -0 -0 -0 -0 -0 -0 -0 -0 -0 -0 -0 -2 -2 -2 -0 -0 -0 -0 -0 -0 -0 -0 -0 -0 -0 -0 -0 -0 -0 -0
Wind_Speed
5 4 4 4 3 3 4 7 6 5 3 5 3 3 5 4 1 5 6 8 10 10 11 11 11 11 11 11 10 10 10 9 9 10 11 11 12 13
4 5 4 5 4 4 3 4 1 4 4 3 3 6 5 6 1 6 6 7 9 11 10 10 10 11 10 9 9 8 9 9 9 9 10 10 11 12
5 6 5 6 3 3 3 3 2 3 7 3 4 7 7 6 4 5 3 6 5 8 10 10 9 9 8 8 7 7 7 7 7 8 8 9 10 11
7 6 6 4 4 4 3 4 4 4 5 12 8 6 7 7 6 6 4 4 6 8 9 8 7 6 7 6 7 7 7 7 7 6 7 8 8 10
6 4 5 6 5 3 4 5 4 3 5 8 7 6 5 5 6 5 4 4 6 8 7 6 6 6 5 5 5 6 6 6 7 7 6 6 7 9
9 7 5 4 4 6 4 6 5 5 6 7 8 8 6 6 4 6 4 3 4 4 2 4 3 4 4 3 4 5 5 5 6 6 6 7 8 9
8 8 6 5 7 4 4 5 5 4 5 6 6 7 6 7 8 5 5 4 3 2 3 3 3 3 3 3 2 5 5 4 4 6 7 8 10 11
11 9 8 11 9 9 9 10 7 4 5 5 5 7 8 7 5 4 4 5 3 2 2 2 2 2 2 0 4 5 3 4 4 6 7 8 10 11
10 10 9 7 10 9 13 15 13 13 10 3 3 5 7 8 5 5 5 3 2 3 1 2 3 2 3 1 2 5 5 3 3 6 7 9 11 13
10 10 10 10 10 11 10 9 7 6 3 3 4 5 5 5 5 4 4 4 5 3 1 1 2 2 1 1 4 4 4 2 5 8 11 12 14 15
10 10 10 9 16 17 10 10 9 6 7 10 10 12 12 12 9 6 4 4 2 3 1 1 1 1 3 2 4 3 5 6 10 12 13 13 14 14
9 9 16 11 18 18 11 10 9 8 9 9 8 10 9 8 8 4 2 2 2 2 2 0 1 1 3 1 2 1 2 7 11 12 12 14 12 3
8 7 7 19 18 17 14 8 9 9 11 7 6 5 5 4 3 3 3 2 2 1 4 1 1 0 1 2 2 2 3 4 4 6 12 12 10 8
9 8 8 19 19 16 11 16 19 13 6 6 5 5 4 4 3 3 3 4 4 4 5 2 1 1 1 2 3 2 3 3 3 4 3 9 11 14
8 13 16 19 18 12 11 15 15 6 5 5 4 4 4 4 4 3 4 4 3 2 1 1 1 1 1 2 3 4 6 2 6 5 4 4 4 3
17 12 10 12 12 10 9 9 6 5 6 5 5 4 3 4 3 3 3 3 1 1 3 1 2 2 2 3 4 7 6 4 3 5 5 4 4 5
11 7 5 8 8 8 6 6 6 6 6 4 4 5 4 4 4 3 2 2 3 2 2 3 4 3 2 3 4 7 7 7 6 5 5 6 6 5
9 6 5 6 8 8 8 6 6 8 5 5 4 5 5 5 5 3 3 3 3 3 2 3 3 2 2 7 15 8 6 6 5 4 5 6 8 6
5 6 5 5 5 6 5 6 6 5 4 5 5 5 5 5 6 4 5 5 5 5 4 3 3 3 5 7 4 13 6 5 5 5 5 6 9 8
7 7 7 6 5 6 6 6 5 5 5 6 5 5 5 5 4 5 6 6 6 5 5 4 5 6 7 7 4 2 5 3 5 8 7 7 10 21
7 7 7 7 7 7 7 6 7 7 7 6 6 6 6 6 6 6 7 13 12 7 8 8 8 15 5 1 1 4 7 17 15 9 5 7 10 10
8 8 8 7 7 8 8 7 7 7 7 6 6 6 6 7 7 7 7 7 7 7 7 5 5 3 3 6 9 10 7 6 12 18 18 18 8 7
7 7 7 7 6 7 7 7 7 7 7 7 7 7 7 7 7 7 7 8 9 8 8 7 5 5 8 8 12 9 8 7 6 7 8 18 22 25
Wind_Direction
137 146 135 125 123 132 140 172 144 153 165 167 145 167 139 153 33 115 104 95 92 93 92 86 80 76 72 72 64 58 55 51 47 42 37 33 29 25
131 144 125 128 138 135 156 177 167 143 126 127 129 156 152 130 83 95 108 106 106 107 102 98 94 85 73 67 63 56 49 44 41 38 33 29 26 22
145 149 142 134 146 154 149 140 145 109 120 105 117 150 145 140 149 126 174 124 108 116 115 107 97 89 77 64 58 54 45 43 38 33 27 21 23 18
145 146 139 136 154 147 141 146 136 123 127 142 144 161 158 156 152 146 146 131 119 123 111 104 95 90 77 68 58 48 34 26 24 16 10 9 13 7
106 97 115 142 148 137 138 112 89 98 128 137 131 155 149 148 148 132 153 150 113 122 129 111 93 85 70 64 49 35 25 16 5 6 2 9 1 349
135 131 122 131 166 147 143 130 134 118 116 124 133 146 153 165 160 155 153 149 149 168 83 92 116 103 75 63 44 23 11 2 356 352 351 360 2 351
127 119 125 124 140 128 133 118 133 122 133 129 142 152 166 175 179 169 162 156 142 168 193 173 173 178 148 171 54 358 333 332 9 31 8 357 350 340
138 124 130 129 123 118 113 90 109 123 124 138 154 172 168 180 175 160 153 158 167 179 222 177 150 198 127 128 27 321 296 101 47 7 352 350 343 334
137 135 132 131 119 116 110 99 84 79 81 82 133 175 168 176 138 159 156 175 113 130 156 234 149 241 147 263 98 288 147 101 21 347 331 326 324 323
137 140 131 128 128 121 110 88 74 66 92 142 145 125 129 130 131 139 140 102 76 102 89 245 107 275 106 219 143 245 159 271 314 317 312 307 314 317
139 137 136 137 147 135 118 120 114 103 109 132 116 116 129 128 114 108 130 156 154 146 121 15 77 333 301 289 151 194 235 271 290 306 306 308 314 314
136 140 151 148 150 137 132 135 126 130 126 115 114 111 104 115 108 104 120 152 104 109 101 197 88 44 311 146 328 220 242 298 303 304 306 308 309 303
147 143 150 154 147 148 149 145 142 138 135 115 111 112 113 102 92 63 64 61 116 101 137 118 131 199 197 303 299 329 316 313 309 305 305 306 301 295
146 142 153 152 147 146 139 139 146 138 128 130 138 141 136 134 129 119 97 76 52 58 129 84 134 73 6 325 273 297 325 305 288 271 299 298 297 304
133 142 149 146 148 148 150 153 144 135 136 143 155 160 149 129 117 105 96 87 79 81 68 107 165 250 169 220 278 295 306 288 299 274 266 284 287 284
145 148 155 151 142 142 156 161 138 160 166 168 163 133 116 131 149 154 157 165 178 182 172 224 262 214 215 248 263 272 268 267 304 296 278 273 274 270
133 143 159 152 154 157 170 169 164 183 174 159 149 151 161 167 177 162 168 157 188 187 192 173 208 240 261 243 264 258 267 268 266 274 285 280 275 276
144 159 165 157 171 169 172 164 170 180 176 163 163 166 175 181 177 168 178 190 212 219 218 190 169 193 250 244 227 252 260 268 264 269 277 279 280 278
157 162 172 166 156 156 159 164 177 183 155 167 178 180 176 187 194 191 200 207 220 225 227 193 180 196 248 260 253 224 237 259 285 275 272 272 279 282
172 171 177 181 178 172 175 178 170 166 176 181 182 187 191 191 183 204 209 210 221 233 234 218 214 218 228 243 227 254 254 259 262 273 279 279 278 285
186 189 191 188 189 182 181 186 182 183 184 191 193 190 192 195 213 216 218 226 228 227 238 238 233 236 223 133 295 251 245 253 253 247 248 271 285 289
190 192 190 191 185 184 187 185 189 197 195 194 199 198 200 199 215 217 222 227 232 245 249 242 219 193 176 222 253 265 265 257 263 271 272 271 268 271
190 183 188 188 187 189 190 192 192 193 202 202 203 205 202 207 213 212 218 230 239 241 243 243 228 212 217 221 245 259 260 257 262 266 263 271 277 279